Durant, OK

6:30 PM CDT on September 20, 2019 (GMT -0500)
Eaker

Weather History for KDUA - August, 2019

Change the Weather History Date:

Sunday, August 18, 2019

  Actual Average (WUND) Record (WUND)
Temperature  
Mean Temperature 88 °F -  
Max Temperature 98 °F - - (-1)
Min Temperature 78 °F - - (-1)
Cooling Degree Days 23    
Growing Degree Days 38 (Base 50)    
Moisture  
Dew Point 71 °F    
Average Humidity 60    
Maximum Humidity 83    
Minimum Humidity 35    
Precipitation  
Precipitation 0.00 in - - ()
Sea Level Pressure  
Sea Level Pressure 29.88 in    
Wind  
Wind Speed 7 mph (South)    
Max Wind Speed 17 mph    
Max Gust Speed 21 mph    
Visibility 10 miles    
Events      
Averages and records for this station are not official NWS values.
T = Trace of Precipitation, MM = Missing Value Source: NWS Daily Summary

Daily Weather History Graph

Daily Weather History Graph

Search for Another Location

Airport or City:

Astronomy

Aug. 18, 2019 Rise Set
Actual Time 6:49 AM CDT 8:09 PM CDT
Civil Twilight 6:23 AM CDT 8:35 PM CDT
Nautical Twilight 5:51 AM CDT 9:06 PM CDT
Astronomical Twilight 5:18 AM CDT 9:39 PM CDT
Moon 10:11 PM CDT (8/18) 9:29 AM CDT (8/18)
Length of Visible Light 14h 12m
Length of Day
13h 19m
Waning Gibbous, 91% of the Moon is Illuminated
Aug 18
Waning Gibbous
Aug 23
Last Quarter
Aug 30
New
Sep 5
First Quarter
Sep 13
Full

Hourly Weather History & Observations

Time (CDT) Temp. Heat Index Dew Point Humidity Pressure Visibility Wind Dir Wind Speed Gust Speed Precip Events Conditions
12:18 AM 80.6 °F 84.6 °F 71.6 °F 74% 29.86 in 10.0 mi SSE 5.8 mph - N/A   Clear
12:36 AM 80.6 °F 84.6 °F 71.6 °F 74% 29.87 in 10.0 mi SSE 4.6 mph - N/A   Clear
12:58 AM 80.6 °F 84.6 °F 71.6 °F 74% 29.87 in 10.0 mi SSE 6.9 mph - N/A   Clear
1:18 AM 80.6 °F 84.6 °F 71.6 °F 74% 29.87 in 10.0 mi SSE 5.8 mph - N/A   Clear
1:36 AM 80.6 °F 84.6 °F 71.6 °F 74% 29.86 in 10.0 mi SSE 6.9 mph - N/A   Clear
2:16 AM 82.4 °F 87.2 °F 71.6 °F 70% 29.86 in 10.0 mi South 5.8 mph - N/A   Clear
2:36 AM 82.4 °F 88.2 °F 73.4 °F 74% 29.86 in 10.0 mi SW 4.6 mph - N/A   Clear
2:56 AM 82.4 °F 88.2 °F 73.4 °F 74% 29.88 in 10.0 mi WSW 3.5 mph - N/A   Clear
3:16 AM 82.4 °F 88.2 °F 73.4 °F 74% 29.88 in 10.0 mi Calm Calm - N/A   Clear
3:36 AM 82.4 °F 88.2 °F 73.4 °F 74% 29.88 in 10.0 mi Calm Calm - N/A   Clear
3:58 AM 80.6 °F 85.4 °F 73.4 °F 79% 29.86 in 10.0 mi SE 4.6 mph - N/A   Clear
4:16 AM 80.6 °F 85.4 °F 73.4 °F 79% 29.85 in 10.0 mi SE 5.8 mph - N/A   Clear
4:36 AM 80.6 °F 85.4 °F 73.4 °F 79% 29.85 in 10.0 mi ESE 4.6 mph - N/A   Clear
4:58 AM 80.6 °F 85.4 °F 73.4 °F 79% 29.84 in 10.0 mi SSE 5.8 mph - N/A   Clear
5:16 AM 80.6 °F 85.4 °F 73.4 °F 79% 29.84 in 10.0 mi SSE 5.8 mph - N/A   Clear
5:36 AM 80.6 °F 85.4 °F 73.4 °F 79% 29.84 in 10.0 mi South 8.1 mph - N/A   Clear
6:16 AM 78.8 °F - 73.4 °F 83% 29.85 in 10.0 mi South 6.9 mph - N/A   Clear
6:38 AM 78.8 °F - 73.4 °F 83% 29.86 in 10.0 mi South 6.9 mph - N/A   Clear
6:56 AM 80.6 °F 85.4 °F 73.4 °F 79% 29.87 in 10.0 mi South 8.1 mph - N/A   Clear
7:16 AM 80.6 °F 85.4 °F 73.4 °F 79% 29.87 in 10.0 mi South 8.1 mph - N/A   Clear
7:36 AM 80.6 °F 85.4 °F 73.4 °F 79% 29.88 in 10.0 mi South 8.1 mph - N/A   Clear
7:56 AM 80.6 °F 85.4 °F 73.4 °F 79% 29.90 in 10.0 mi South 8.1 mph - N/A   Clear
8:16 AM 80.6 °F 85.4 °F 73.4 °F 79% 29.90 in 10.0 mi South 9.2 mph - N/A   Clear
8:36 AM 82.4 °F 88.2 °F 73.4 °F 74% 29.90 in 10.0 mi South 11.5 mph - N/A   Clear
8:59 AM 82.4 °F 88.2 °F 73.4 °F 74% 29.90 in 10.0 mi South 11.5 mph - N/A   Clear
9:38 AM 86.0 °F 91.8 °F 71.6 °F 62% 29.91 in 10.0 mi South 15.0 mph 19.6 mph N/A   Clear
9:58 AM 87.8 °F 93.8 °F 71.6 °F 58% 29.92 in 10.0 mi South 15.0 mph - N/A   Clear
10:19 AM 87.8 °F 93.8 °F 71.6 °F 58% 29.92 in 10.0 mi SSW 10.4 mph 18.4 mph N/A   Clear
10:36 AM 89.6 °F 96.2 °F 71.6 °F 55% 29.92 in 10.0 mi SSW 12.7 mph - N/A   Clear
10:56 AM 89.6 °F 96.2 °F 71.6 °F 55% 29.92 in 10.0 mi SSW 9.2 mph - N/A   Clear
11:18 AM 91.4 °F 98.4 °F 71.6 °F 52% 29.93 in 10.0 mi South 11.5 mph - N/A   Clear
11:36 AM 91.4 °F 96.8 °F 69.8 °F 49% 29.93 in 10.0 mi South 13.8 mph 18.4 mph N/A   Clear
12:18 PM 93.2 °F 98.8 °F 69.8 °F 46% 29.93 in 10.0 mi South 11.5 mph 17.3 mph N/A   Clear
1:16 PM 95.0 °F 101.3 °F 69.8 °F 44% 29.93 in 10.0 mi South 6.9 mph 16.1 mph N/A   Clear
1:36 PM 96.8 °F 103.1 °F 69.8 °F 41% 29.93 in 10.0 mi South 3.5 mph - N/A   Clear
1:56 PM 96.8 °F 105.1 °F 71.6 °F 44% 29.93 in 10.0 mi SSE 9.2 mph - N/A   Mostly Cloudy
2:16 PM 98.6 °F 107.7 °F 71.6 °F 42% 29.92 in 10.0 mi SSE 10.4 mph - N/A   Scattered Clouds
2:36 PM 98.6 °F 107.7 °F 71.6 °F 42% 29.91 in 10.0 mi South 10.4 mph - N/A   Clear
2:58 PM 98.6 °F 105.5 °F 69.8 °F 39% 29.89 in 10.0 mi SSE 11.5 mph - N/A   Clear
3:16 PM 98.6 °F 104.1 °F 68.0 °F 37% 29.87 in 10.0 mi South 10.4 mph 20.7 mph N/A   Clear
3:39 PM 96.8 °F 101.8 °F 68.0 °F 39% 29.88 in 10.0 mi South 10.4 mph 18.4 mph N/A   Clear
4:16 PM 98.6 °F 104.1 °F 68.0 °F 37% 29.86 in 10.0 mi South 16.1 mph - N/A   Clear
4:38 PM 98.6 °F 105.5 °F 69.8 °F 39% 29.85 in 10.0 mi South 15.0 mph 20.7 mph N/A   Clear
4:59 PM 98.6 °F 105.5 °F 69.8 °F 39% 29.86 in 10.0 mi South 12.7 mph 20.7 mph N/A   Clear
5:18 PM 98.6 °F 102.8 °F 66.2 °F 35% 29.86 in 10.0 mi South 17.3 mph - N/A   Clear
5:37 PM 98.6 °F 104.1 °F 68.0 °F 37% 29.86 in 10.0 mi SSE 11.5 mph - N/A   Clear
6:00 PM 98.6 °F 104.1 °F 68.0 °F 37% 29.86 in 10.0 mi South 11.5 mph - N/A   Clear
6:18 PM 98.6 °F 104.1 °F 68.0 °F 37% 29.86 in 10.0 mi South 11.5 mph - N/A   Clear
6:37 PM 98.6 °F 102.8 °F 66.2 °F 35% 29.86 in 10.0 mi South 13.8 mph - N/A   Clear
6:57 PM 96.8 °F 100.7 °F 66.2 °F 37% 29.86 in 10.0 mi South 10.4 mph - N/A   Clear
7:17 PM 96.8 °F 101.8 °F 68.0 °F 39% 29.85 in 10.0 mi South 8.1 mph - N/A   Clear
7:37 PM 95.0 °F 101.3 °F 69.8 °F 44% 29.86 in 10.0 mi SSE 5.8 mph - N/A   Clear
7:57 PM 91.4 °F 96.8 °F 69.8 °F 49% 29.86 in 10.0 mi SE 5.8 mph - N/A   Clear
8:19 PM 89.6 °F 94.7 °F 69.8 °F 52% 29.86 in 10.0 mi SE 5.8 mph - N/A   Clear
8:37 PM 87.8 °F 92.6 °F 69.8 °F 55% 29.87 in 10.0 mi SE 5.8 mph - N/A   Clear
8:57 PM 87.8 °F 92.6 °F 69.8 °F 55% 29.87 in 10.0 mi SSE 5.8 mph - N/A   Clear
9:17 PM 86.0 °F 90.4 °F 69.8 °F 58% 29.89 in 10.0 mi SSE 6.9 mph - N/A   Clear
9:37 PM 84.2 °F 88.4 °F 69.8 °F 62% 29.89 in 10.0 mi SSE 6.9 mph - N/A   Clear
9:58 PM 84.2 °F 88.4 °F 69.8 °F 62% 29.90 in 10.0 mi SE 4.6 mph - N/A   Clear
10:40 PM 82.4 °F 86.3 °F 69.8 °F 66% 29.92 in 10.0 mi SSE 4.6 mph - N/A   Clear
10:59 PM 82.4 °F 87.2 °F 71.6 °F 70% 29.92 in 10.0 mi SSE 5.8 mph - N/A   Clear
11:17 PM 82.4 °F 87.2 °F 71.6 °F 70% 29.93 in 10.0 mi SE 4.6 mph - N/A   Clear
11:37 PM 82.4 °F 87.2 °F 71.6 °F 70% 29.92 in 10.0 mi SE 4.6 mph - N/A   Clear
11:56 PM 80.6 °F 84.6 °F 71.6 °F 74% 29.93 in 10.0 mi SSE 4.6 mph - N/A   Clear